Weather History for Tyler, TX

Change the Weather History Date:

Tuesday, September 13, 2011

  Actual Average Record
Temperature  
Mean Temperature 88 °F 77 °F  
Max Temperature 106 °F 87 °F 106 °F (2011)
Min Temperature 70 °F 67 °F 45 °F (1960)
Degree Days  
Heating Degree Days 0 0  
Month to date heating degree days 0 0  
Since 1 July heating degree days 0 0  
Cooling Degree Days 23 12  
Month to date cooling degree days 204 181  
Year to date cooling degree days 3198 2103  
Growing Degree Days 38 (Base 50)    
Moisture  
Dew Point 50 °F    
Average Humidity 34    
Maximum Humidity 53    
Minimum Humidity 14    
Precipitation  
Precipitation 0.00 in 0.12 in 9.07 in (1913)
Month to date precipitation T 1.57  
Year to date precipitation 12.83 30.83  
Snow  
Snow 0.00 in - - ()
Month to date snowfall 0.0  
Since 1 July snowfall 0.0  
Since 1 September snowfall 0.0  
Snow Depth 0.00 in    
Sea Level Pressure  
Sea Level Pressure 29.91 in    
Wind  
Wind Speed 8 mph (SSW)    
Max Wind Speed 14 mph    
Max Gust Speed 20 mph    
Visibility 10 miles    
Events      
T = Trace of Precipitation, MM = Missing Value Source: NWS Daily Summary

Daily Weather History Graph

Daily Weather History Graph

Search for Another Location

Airport:

Trip Planner

Search our weather history database for the weather conditions in past years. The results will help you decide how hot, cold, wet, or windy it might be!

Date:

Astronomy

Sep. 13, 2011 Rise Set
Actual Time 7:04 AM CDT 7:30 PM CDT
Civil Twilight 6:39 AM CDT 7:55 PM CDT
Nautical Twilight 6:10 AM CDT 8:24 PM CDT
Astronomical Twilight 5:41 AM CDT 8:53 PM CDT
Moon 7:56 PM CDT (9/13) 8:10 AM CDT (9/13)
Length of Visible Light 13h 15m
Length of Day
12h 26m
Full, 98% of the Moon is Illuminated
Sep 13
Full
Sep 20
Last Quarter
Sep 27
New
Oct 3
First Quarter
Oct 11
Full

Hourly Weather History & Observations

Time (CDT) Temp. Heat Index Dew Point Humidity Pressure Visibility Wind Dir Wind Speed Gust Speed Precip Events Conditions
12:53 AM 77.0 °F - 46.0 °F 33% 29.96 in 10.0 mi South 3.5 mph - N/A   Clear
1:53 AM 77.0 °F - 46.0 °F 33% 29.95 in 10.0 mi SSE 8.1 mph - N/A   Clear
2:53 AM 73.4 °F - 46.4 °F 38% 29.97 in 10.0 mi South 8.1 mph - N/A   Clear
3:53 AM 73.9 °F - 48.0 °F 40% 29.95 in 10.0 mi South 6.9 mph - N/A   Clear
4:53 AM 73.0 °F - 51.1 °F 46% 29.94 in 10.0 mi South 6.9 mph - N/A   Clear
5:53 AM 72.0 °F - 53.1 °F 51% 29.95 in 10.0 mi South 5.8 mph - N/A   Clear
6:53 AM 71.1 °F - 54.0 °F 55% 29.96 in 10.0 mi South 6.9 mph - N/A   Clear
7:53 AM 73.9 °F - 55.0 °F 52% 29.96 in 10.0 mi South 5.8 mph - N/A   Clear
8:53 AM 81.0 °F 80.5 °F 54.0 °F 39% 29.97 in 10.0 mi SSW 9.2 mph - N/A   Clear
9:53 AM 86.0 °F 84.2 °F 54.0 °F 33% 29.97 in 10.0 mi WSW 8.1 mph - N/A   Clear
10:53 AM 93.0 °F - 48.9 °F 22% 29.97 in 10.0 mi WSW 15.0 mph 19.6 mph N/A   Clear
11:53 AM 96.1 °F - 48.9 °F 20% 29.96 in 10.0 mi West 16.1 mph 25.3 mph N/A   Clear
12:53 PM 98.6 °F - 48.2 °F 18% 29.96 in 10.0 mi West 9.2 mph - N/A   Clear
1:53 PM 102.0 °F - 46.9 °F 16% 29.91 in 10.0 mi WSW 6.9 mph 18.4 mph N/A   Clear
2:53 PM 102.9 °F - 46.9 °F 15% 29.88 in 10.0 mi Calm Calm - N/A   Clear
3:53 PM 105.1 °F - 46.0 °F 14% 29.85 in 10.0 mi SSW 12.7 mph 19.6 mph N/A   Clear
4:53 PM 105.1 °F - 46.0 °F 14% 29.84 in - SW 12.7 mph - N/A   Clear
5:53 PM 104.0 °F - 46.0 °F 14% 29.83 in - SSW 9.2 mph - N/A   Clear
6:53 PM 100.9 °F - 48.0 °F 17% 29.83 in - SSW 8.1 mph - N/A   Clear
7:53 PM 93.9 °F - 52.0 °F 24% 29.83 in - SSW 3.5 mph - N/A   Clear
8:53 PM 89.1 °F - 51.1 °F 27% 29.84 in - South 5.8 mph - N/A   Clear
9:53 PM 88.0 °F - 52.0 °F 29% 29.85 in - South 8.1 mph - N/A   Clear
10:53 PM 90.0 °F - 52.0 °F 27% 29.85 in - SSW 9.2 mph - N/A   Clear
11:53 PM 88.0 °F 85.7 °F 53.1 °F 30% 29.85 in - SSW 6.9 mph - N/A   Clear